[[{"header":{"parameterUnit":"m.s-1","parameterCategory":1,"la1":30.2991,"la2":30.254,"lo1":-89.0895,"lo2":-89.0444,"dy":0.0017,"dx":0.0017,"nx":28,"ny":28,"refTime":"2023-11-13T03:00:00:Z","depth":0,"parameterNumber":2,"parameterNumberName":"U-component_of_WINDS"},"data":[0,0,0,0,0,0,0,0,0,0,0,0,0,0,0,0,0,0,0,0,0,0,0,0,0,0,0,0,0,0,0,0,0,0,0,0,0,0,0,0,0,0,0,0,0,0,0,0,0,0,0,0,0,0,0,0,0,0,-4.3461,-4.3461,0,-4.3439,-4.3439,-4.3439,-4.3312,-4.3309,-4.3306,-4.3303,-4.3283,-4.3285,-4.3287,0,0,0,0,0,0,0,0,0,0,0,0,0,-4.3396,-4.3398,-4.3461,-4.3461,-4.3461,-4.344,-4.3439,-4.3439,-4.3313,-4.3309,-4.3305,-4.3302,-4.3282,-4.3285,-4.3287,0,0,0,0,0,0,0,0,0,0,0,0,0,-4.3404,-4.3398,-4.3462,-4.3395,-4.3389,-4.344,-4.3439,-4.3439,-4.3313,-4.3309,-4.3304,-4.33,-4.3281,-4.3284,-4.3288,-4.3401,0,0,-4.3298,-4.33,0,0,0,0,0,0,0,0,-4.3404,-4.3407,-4.3405,-4.34,-4.3393,-4.3374,-4.3408,-4.3426,-4.3315,-4.3342,-4.3303,-4.3298,-4.3317,-4.3317,-4.3323,-4.34,-4.3399,-4.3299,-4.3301,-4.3302,-4.3303,0,0,0,0,0,0,0,-4.3404,-4.3407,-4.3453,-4.3405,-4.3398,-4.3367,-4.3363,-4.3411,-4.3356,-4.3339,-4.333,-4.3329,-4.3313,-4.332,-4.3322,-4.3399,-4.3299,-4.3302,-4.3304,-4.3305,-4.3568,-4.3573,0,0,0,0,0,0,-4.3412,-4.3408,-4.3453,-4.3452,-4.3387,-4.3372,-4.3368,-4.3385,-4.3355,-4.3346,-4.3333,-4.3323,-4.3316,-4.3318,-4.3321,-4.3451,-4.3302,-4.3305,-4.3307,-4.3564,-4.357,-4.3575,0,0,0,0,0,0,-4.3411,-4.3417,-4.3454,-4.3427,-4.343,-4.3378,-4.3398,-4.3387,-4.3394,-4.335,-4.334,-4.3351,-4.3313,-4.3316,-4.3382,-4.3449,-4.3307,-4.331,-4.3558,-4.3565,-4.3572,-4.3715,0,0,0,0,0,0,-4.341,-4.3418,-4.346,-4.3429,-4.3432,-4.3516,-4.3402,-4.339,-4.34,-4.3387,-4.3364,-4.3356,-4.3309,-4.3377,-4.3385,-4.3451,-4.3313,-4.3552,-4.3561,-4.357,-4.3704,-4.3726,-4.3745,0,0,0,0,0,-4.3408,-4.3501,-4.3463,-4.3469,-4.3483,-4.352,-4.3521,-4.3466,-4.3406,-4.3448,-4.342,-4.3356,-4.344,-4.3385,-4.3393,-4.3461,-4.3547,-4.3558,-4.3569,-4.3694,-4.3722,-4.3745,0,0,0,0,0,0,-4.3541,-4.3496,-4.3453,-4.3538,-4.3534,-4.3499,-4.355,-4.3496,-4.3509,-4.3497,-4.3428,-4.3424,-4.3501,-4.3487,-4.3427,-4.357,-4.3483,-4.3496,-4.3576,-4.3601,-4.3621,-4.3623,-4.3316,0,0,0,0,0,-4.3581,-4.3614,-4.3573,-4.3652,-4.3652,-4.3602,-4.3616,-4.3574,-4.3567,-4.3564,-4.3541,-4.3537,-4.3562,-4.3581,-4.3602,-4.3701,-4.3695,-4.3752,-4.3772,-4.379,-4.3802,-4.3854,-4.388,-4.3611,-4.3611,-4.3611,0,0,-4.3662,-4.3642,-4.3667,-4.3679,-4.367,-4.3707,-4.3601,-4.3644,-4.3671,-4.3571,-4.3632,-4.3615,-4.3606,-4.369,-4.3726,-4.3681,-4.3875,-4.3804,-4.3818,-4.3821,-4.3868,-4.3894,-4.3917,-4.3619,-4.3617,-4.3616,0,0,-4.383,-4.3818,-4.3883,-4.3877,-4.3865,-4.3831,-4.3847,-4.382,-4.3805,-4.3865,-4.379,-4.3822,-4.3867,-4.3864,-4.3869,-4.4037,-4.3979,-4.4045,-4.4154,-4.4205,-4.4227,-4.4245,-4.4306,-4.4328,-4.4058,-4.4058,-4.4058,0,-4.3933,-4.3985,-4.3923,-4.3972,-4.398,-4.389,-4.3956,-4.3953,-4.395,-4.3958,-4.3908,-4.3963,-4.3951,-4.4033,-4.4074,-4.408,-4.4097,-4.4048,-4.4228,-4.4246,-4.4263,-4.432,-4.4343,-4.4066,-4.4065,-4.4065,-4.4064,0,-4.4113,-4.4151,-4.4205,-4.4203,-4.4217,-4.4274,-4.4222,-4.4244,-4.42,-4.4172,-4.4235,-4.4217,-4.4234,-4.425,-4.4208,-4.4327,-4.43,-4.424,-4.4152,-4.4297,-4.435,-4.4371,-4.4078,-4.4075,-4.4073,-4.4071,0,0,-4.4364,-4.4328,-4.4349,-4.4348,-4.4329,-4.4357,-4.4411,-4.4426,-4.4446,-4.4447,-4.4491,-4.4532,-4.4477,-4.4482,-4.4439,-4.4485,-4.462,-4.442,-4.4418,-4.4458,-4.4751,-4.4796,-4.4822,-4.4582,-4.4586,-4.4589,-4.4752,0,-4.4526,-4.4614,-4.4561,-4.4658,-4.4692,-4.4608,-4.4655,-4.4649,-4.4624,-4.465,-4.4623,-4.4653,-4.4578,-4.458,-4.4622,-4.4595,-4.4678,-4.4582,-4.4623,-4.4625,-4.4628,-4.4849,-4.4897,-4.5052,-4.4772,-4.4775,-4.4778,0,-4.4725,-4.4735,-4.4836,-4.4811,-4.4823,-4.4866,-4.4876,-4.4902,-4.4894,-4.4873,-4.4879,-4.4825,-4.4877,-4.479,-4.4861,-4.4797,-4.4811,-4.48,-4.4805,-4.4807,-4.4711,-4.4858,-4.51,-4.5123,-4.4809,-4.4807,-4.4804,0,-4.4899,-4.4937,-4.5002,-4.5004,-4.4976,-4.5008,-4.4999,-4.4986,-4.4999,-4.5008,-4.5016,-4.5032,-4.5041,-4.5054,-4.5007,-4.4947,-4.5085,-4.4993,-4.5069,-4.5071,-4.5102,-4.5101,-4.535,-4.5111,-4.511,-4.511,-4.5109,0,-4.5085,-4.5151,-4.508,-4.5121,-4.5191,-4.5129,-4.5202,-4.5183,-4.5173,-4.5208,-4.5137,-4.5172,-4.5106,-4.5136,-4.5099,-4.5164,-4.5168,-4.5153,-4.5143,-4.516,-4.5162,-4.5168,-4.5156,-4.5116,-4.5115,-4.5113,-4.5112,0,-4.5292,-4.5247,-4.5313,-4.5281,-4.5275,-4.5329,-4.5302,-4.5339,-4.5309,-4.5356,-4.5363,-4.5317,-4.5348,-4.5301,-4.5327,-4.5302,-4.5392,-4.5365,-4.5395,-4.5387,-4.5466,-4.546,-4.5728,-4.5761,-4.5501,-4.5503,-4.5505,0,-4.5414,-4.5462,-4.5436,-4.5454,-4.5448,-4.5479,-4.5492,-4.5433,-4.545,-4.5445,-4.5483,-4.5507,-4.5523,-4.5577,-4.5546,-4.5566,-4.5539,-4.5632,-4.5541,-4.5557,-4.5541,-4.5539,-4.5544,-4.565,-4.5654,-4.5656,-4.5658,0,-4.5635,-4.5611,-4.5631,-4.5646,-4.5663,-4.5671,-4.5674,-4.5693,-4.5632,-4.5654,-4.5684,-4.5697,-4.5723,-4.5749,-4.5761,-4.5751,-4.5696,-4.5687,-4.5706,-4.5724,-4.5739,-4.5733,-4.5446,-4.5681,-4.5679,-4.5677,-4.5676,-4.5675,-4.5803,-4.5842,-4.583,-4.5856,-4.5852,-4.5857,-4.589,-4.5864,-4.5888,-4.5904,-4.5868,-4.5908,-4.5899,-4.591,-4.5907,-4.5937,-4.5896,-4.5924,-4.5931,-4.5938,-4.5951,-4.5735,-4.5939,-4.5938,-4.5938,-4.5937,-4.5936,0,-4.6021,-4.6009,-4.6034,-4.604,-4.6061,-4.6006,-4.6006,-4.6028,-4.6063,-4.606,-4.6077,-4.6113,-4.6137,-4.6109,-4.6129,-4.6159,-4.6134,-4.6166,-4.6164,-4.6163,-4.5986,-4.5968,-4.6186,-4.6186,-4.6186,-4.6186,-4.6186,-4.6186,-4.6137,-4.6201,-4.6175,-4.6237,-4.6224,-4.6262,-4.6267,-4.6271,-4.6268,-4.6311,-4.6331,-4.6312,-4.6299,-4.6317,-4.6338,-4.6329,-4.634,-4.6382,-4.6364,-4.62,-4.6175,-4.6152,-4.6134,-4.6384,-4.6385,-4.6538,-4.654,-4.6541]},{"header":{"parameterUnit":"m.s-1","parameterCategory":1,"la1":30.2991,"la2":30.254,"lo1":-89.0895,"lo2":-89.0444,"dy":0.0017,"dx":0.0017,"nx":28,"ny":28,"refTime":"2023-11-13T03:00:00:Z","depth":0,"parameterNumber":3,"parameterNumberName":"V-component_of_WINDS"},"data":[0,0,0,0,0,0,0,0,0,0,0,0,0,0,0,0,0,0,0,0,0,0,0,0,0,0,0,0,0,0,0,0,0,0,0,0,0,0,0,0,0,0,0,0,0,0,0,0,0,0,0,0,0,0,0,0,0,0,-4.715,-4.7151,0,-4.7231,-4.7231,-4.7232,-4.7182,-4.7179,-4.7177,-4.7175,-4.7252,-4.7257,-4.7261,0,0,0,0,0,0,0,0,0,0,0,0,0,-4.6947,-4.6951,-4.715,-4.7151,-4.7152,-4.723,-4.7231,-4.7233,-4.7182,-4.7179,-4.7176,-4.7174,-4.7251,-4.7256,-4.7261,0,0,0,0,0,0,0,0,0,0,0,0,0,-4.7032,-4.6952,-4.715,-4.7137,-4.7136,-4.723,-4.7232,-4.7233,-4.7183,-4.7179,-4.7176,-4.7172,-4.7249,-4.7256,-4.7262,-4.7372,0,0,-4.7281,-4.7284,0,0,0,0,0,0,0,0,-4.7027,-4.7039,-4.7138,-4.7138,-4.7137,-4.7193,-4.7188,-4.7279,-4.7184,-4.7165,-4.7175,-4.7171,-4.7235,-4.7242,-4.7265,-4.7376,-4.7379,-4.7282,-4.7286,-4.7289,-4.729,0,0,0,0,0,0,0,-4.7021,-4.7035,-4.7182,-4.7139,-4.7139,-4.7124,-4.7133,-4.7205,-4.7219,-4.7166,-4.7163,-4.7173,-4.7234,-4.7259,-4.7266,-4.738,-4.7282,-4.7287,-4.7291,-4.7294,-4.7582,-4.7586,0,0,0,0,0,0,-4.7017,-4.7031,-4.7179,-4.7184,-4.7073,-4.7131,-4.714,-4.7178,-4.7218,-4.7221,-4.7176,-4.7171,-4.725,-4.7259,-4.7269,-4.7399,-4.7288,-4.7294,-4.7298,-4.7578,-4.7583,-4.7587,0,0,0,0,0,0,-4.7013,-4.7031,-4.7176,-4.7107,-4.7124,-4.7138,-4.7182,-4.7182,-4.7207,-4.7225,-4.7227,-4.72,-4.7247,-4.726,-4.7346,-4.7401,-4.7297,-4.7303,-4.7574,-4.758,-4.7585,-4.7661,0,0,0,0,0,0,-4.7007,-4.703,-4.7074,-4.7108,-4.7128,-4.7255,-4.7185,-4.7186,-4.7218,-4.7212,-4.7248,-4.725,-4.7246,-4.7337,-4.7353,-4.7408,-4.7308,-4.7569,-4.7576,-4.7583,-4.7654,-4.7669,-4.7682,0,0,0,0,0,-4.7,-4.7091,-4.7076,-4.7094,-4.7183,-4.7258,-4.7269,-4.7263,-4.7223,-4.7266,-4.7277,-4.7249,-4.7393,-4.7347,-4.7364,-4.7422,-4.7565,-4.7574,-4.7582,-4.7648,-4.7666,-4.7682,0,0,0,0,0,0,-4.7062,-4.7096,-4.7079,-4.7185,-4.7219,-4.7249,-4.7303,-4.7283,-4.7328,-4.732,-4.731,-4.7318,-4.7408,-4.7423,-4.7371,-4.7529,-4.7472,-4.7485,-4.7516,-4.7534,-4.7547,-4.7542,-4.7313,0,0,0,0,0,-4.7088,-4.7147,-4.7173,-4.7263,-4.7281,-4.729,-4.7322,-4.7314,-4.7349,-4.7363,-4.738,-4.7413,-4.7465,-4.75,-4.755,-4.7656,-4.7661,-4.7704,-4.7717,-4.7729,-4.774,-4.7795,-4.7813,-4.7615,-4.7615,-4.7615,0,0,-4.7142,-4.7168,-4.7206,-4.7276,-4.7302,-4.7362,-4.7302,-4.7368,-4.7412,-4.7372,-4.7455,-4.7469,-4.7505,-4.7601,-4.7644,-4.7616,-4.7796,-4.774,-4.7749,-4.7754,-4.7806,-4.7824,-4.7841,-4.7621,-4.762,-4.7619,0,0,-4.7271,-4.7298,-4.7375,-4.7402,-4.7441,-4.7446,-4.7464,-4.7497,-4.7506,-4.7589,-4.756,-4.761,-4.7701,-4.7727,-4.7752,-4.7888,-4.7863,-4.7904,-4.7977,-4.8031,-4.8046,-4.806,-4.8108,-4.8125,-4.7915,-4.7915,-4.7915,0,-4.7333,-4.7424,-4.7417,-4.7485,-4.7516,-4.7483,-4.756,-4.7586,-4.7639,-4.766,-4.7628,-4.774,-4.7762,-4.7863,-4.7896,-4.7918,-4.7937,-4.7901,-4.8045,-4.8059,-4.8072,-4.8117,-4.8135,-4.792,-4.7919,-4.7919,-4.7918,0,-4.7497,-4.756,-4.7618,-4.7671,-4.7708,-4.778,-4.7782,-4.7819,-4.7808,-4.7815,-4.7898,-4.7923,-4.7976,-4.7999,-4.7988,-4.8098,-4.8079,-4.8047,-4.799,-4.8095,-4.8137,-4.8155,-4.7927,-4.7925,-4.7923,-4.7922,0,0,-4.767,-4.7717,-4.7738,-4.7761,-4.7801,-4.7848,-4.7917,-4.797,-4.8002,-4.8039,-4.8095,-4.8172,-4.8141,-4.817,-4.8161,-4.8208,-4.8313,-4.8169,-4.817,-4.8194,-4.8433,-4.8457,-4.8478,-4.8296,-4.8299,-4.8302,-4.843,0,-4.78,-4.7924,-4.7918,-4.8032,-4.8089,-4.8057,-4.8117,-4.8147,-4.8154,-4.8202,-4.8209,-4.8263,-4.8219,-4.8236,-4.8281,-4.8291,-4.836,-4.8281,-4.8347,-4.8349,-4.8339,-4.85,-4.8527,-4.8646,-4.8446,-4.8449,-4.8451,0,-4.7971,-4.8014,-4.8135,-4.8164,-4.8188,-4.8242,-4.8289,-4.8335,-4.8367,-4.8369,-4.84,-4.8383,-4.845,-4.8391,-4.8482,-4.8428,-4.8454,-4.8462,-4.8467,-4.8473,-4.8407,-4.851,-4.8685,-4.8703,-4.8477,-4.8475,-4.8473,0,-4.8083,-4.8171,-4.8254,-4.8275,-4.8312,-4.8351,-4.8367,-4.8396,-4.8427,-4.8467,-4.8486,-4.8533,-4.8559,-4.8594,-4.8589,-4.8547,-4.8681,-4.8622,-4.8683,-4.8684,-4.8714,-4.8712,-4.8895,-4.8731,-4.8731,-4.873,-4.873,0,-4.823,-4.8305,-4.8305,-4.8357,-4.8438,-4.8429,-4.8509,-4.8521,-4.8546,-4.8597,-4.8572,-4.862,-4.861,-4.8657,-4.8653,-4.8729,-4.874,-4.8742,-4.874,-4.8745,-4.8745,-4.8762,-4.8753,-4.8735,-4.8734,-4.8733,-4.8732,0,-4.8371,-4.8374,-4.8462,-4.849,-4.8498,-4.8557,-4.8579,-4.8626,-4.863,-4.8695,-4.8709,-4.8716,-4.877,-4.8768,-4.8829,-4.8826,-4.8919,-4.8907,-4.8909,-4.8906,-4.8967,-4.8961,-4.9168,-4.9194,-4.9013,-4.9015,-4.9016,0,-4.8465,-4.8521,-4.8554,-4.8587,-4.8607,-4.866,-4.8692,-4.8684,-4.8718,-4.8757,-4.8798,-4.885,-4.8891,-4.8978,-4.8987,-4.9033,-4.9022,-4.9091,-4.9029,-4.903,-4.9022,-4.9019,-4.9024,-4.9103,-4.9105,-4.9107,-4.9108,0,-4.863,-4.8629,-4.8677,-4.8724,-4.8763,-4.88,-4.8834,-4.8862,-4.8857,-4.8895,-4.8951,-4.8983,-4.9044,-4.9095,-4.9139,-4.9153,-4.913,-4.9128,-4.9144,-4.9149,-4.9148,-4.9148,-4.8942,-4.9123,-4.9122,-4.9121,-4.912,-4.9119,-4.875,-4.8798,-4.8829,-4.8882,-4.8906,-4.8938,-4.8983,-4.8993,-4.9039,-4.909,-4.9082,-4.9143,-4.917,-4.9226,-4.9245,-4.9291,-4.9266,-4.929,-4.9297,-4.9303,-4.9309,-4.914,-4.9299,-4.9298,-4.9298,-4.9298,-4.9297,0,-4.8914,-4.8932,-4.8981,-4.9029,-4.907,-4.9045,-4.908,-4.9116,-4.917,-4.9199,-4.9239,-4.9301,-4.935,-4.9362,-4.9408,-4.9442,-4.9433,-4.9455,-4.9452,-4.9455,-4.9329,-4.931,-4.9462,-4.9462,-4.9462,-4.9462,-4.9462,-4.9462,-4.9004,-4.9084,-4.9086,-4.9176,-4.9192,-4.9253,-4.9275,-4.9303,-4.9325,-4.9397,-4.9437,-4.9445,-4.9466,-4.9513,-4.9555,-4.9557,-4.9575,-4.9602,-4.9599,-4.9481,-4.9465,-4.9449,-4.9431,-4.9606,-4.9606,-4.9722,-4.9723,-4.9724]}]]